SCP
0 0 0 0 0 0 0 0 0 0 0 0 0 0 0 0 0 0 0 0 0 0 0 0 0 0 0 0 0 0 0 0 0 0 0 0 0 0 0 0 0 0 0
0 0 0 0 0 0 0 0 0 0 0 0 0 0 0 0 0 0 0 0 0 0 0 0 0 0 0 0 0 0 0 0 0 0 0 0 0 0 0 0 0 0 0
1 1 1 0 0 0 0 0 0 0 0 0 0 0 0 0 0 0 0 0 0 0 0 0 0 0 0 0 0 0 0 0 0 0 0 0 0 0 0 0 0 0 0
1 1 1 1 1 1 0 0 0 0 0 0 0 0 0 0 0 0 0 0 0 0 0 0 0 0 0 0 0 0 0 0 0 0 0 0 0 0 0 0 0 0 0
1 1 1 1 1 1 1 1 0 0 0 0 0 0 0 0 0 0 0 0 0 0 0 0 0 0 0 0 0 0 0 0 0 0 0 0 0 0 0 0 0 0 0
1 1 1 1 1 1 1 1 0 0 0 0 0 0 0 0 0 0 0 0 0 0 0 0 0 0 0 0 0 0 0 0 0 0 0 0 0 0 0 0 0 0 0
1 1 1 1 1 1 1 1 0 0 0 0 0 0 0 0 0 0 0 0 0 0 0 0 0 0 0 0 0 0 0 0 0 0 0 0 0 0 0 0 0 0 0
1 1 1 1 1 1 1 1 1 0 0 0 0 0 0 0 0 0 0 0 0 0 0 0 0 0 0 0 0 0 0 0 0 0 0 0 0 0 0 0 0 0 0
1 1 1 1 1 1 1 1 1 0 0 0 0 0 0 0 0 0 0 0 0 0 0 0 0 0 0 0 0 0 0 0 0 0 0 0 0 0 0 0 0 0 0
1 1 1 1 1 1 1 1 1 0 0 0 0 0 0 0 0 0 0 0 0 0 0 0 0 0 0 0 0 0 0 0 0 0 0 0 0 0 0 0 0 0 0
1 1 1 1 1 1 1 1 0 0 0 0 0 0 0 0 0 0 0 0 0 0 0 0 0 0 0 0 0 0 0 0 0 0 0 0 0 0 0 0 0 0 0
1 1 1 1 1 1 1 1 0 0 0 0 0 0 0 0 0 0 0 0 0 0 0 0 0 0 0 0 0 0 0 0 0 0 0 0 0 0 0 0 0 0 0
1 1 1 1 1 1 1 1 1 0 0 0 0 0 0 0 0 0 0 0 0 0 0 0 0 0 0 0 0 0 0 0 0 0 0 0 0 0 0 0 0 0 0
1 1 1 1 1 1 1 1 1 0 0 0 0 0 0 0 0 0 0 0 0 0 0 0 0 0 0 0 0 0 0 0 0 0 0 0 0 0 0 0 0 0 0
1 1 1 1 1 1 1 1 1 0 0 0 0 0 0 0 0 0 0 0 0 0 0 0 0 0 0 0 0 0 0 0 0 0 0 0 0 0 0 0 0 0 0
1 1 1 1 1 1 1 1 0 0 0 0 0 0 0 0 0 0 0 0 0 0 0 0 0 0 0 0 0 0 0 0 0 0 0 0 0 0 0 0 0 0 0
1 1 1 1 1 1 1 1 0 0 0 0 0 0 0 0 0 0 0 0 0 0 0 0 0 0 0 0 0 0 0 0 0 0 0 0 0 0 0 0 0 0 0
1 1 1 1 1 1 1 1 0 0 0 0 0 0 0 0 0 0 0 0 0 0 0 0 0 0 0 0 0 0 0 0 0 0 0 0 0 0 0 0 0 0 0
1 1 1 1 1 1 1 1 0 0 0 0 0 0 0 0 0 0 0 0 0 0 0 0 0 0 0 0 0 0 0 0 0 0 0 0 0 0 0 0 0 0 0
1 1 1 1 1 0 0 0 0 0 0 0 0 0 0 0 0 0 0 0 0 0 0 0 0 0 0 0 0 0 0 0 0 0 0 0 0 0 0 0 0 0 0
0 0 0 0 0 0 0 0 0 0 0 0 0 0 0 0 0 0 0 0 0 0 0 0 0 0 0 0 0 0 0 0 0 0 0 0 -0 0 0 0 0 0 0
0 0 0 0 0 0 0 0 0 0 0 0 0 0 0 0 0 0 0 0 0 0 0 0 0 0 0 0 0 0 0 0 0 0 0 0 0 0 0 0 0 0 0
0 0 0 0 0 0 0 0 0 0 0 0 0 0 0 0 0 0 0 0 0 0 0 0 0 0 0 0 0 0 0 0 0 0 0 0 0 0 0 0 0 0 0
0 0 0 0 0 0 0 0 0 0 0 0 0 0 0 0 0 0 0 0 0 0 0 0 0 0 0 0 0 0 0 0 0 0 0 0 0 0 0 0 0 0 0
0 0 0 0 0 0 0 0 0 0 0 0 0 0 0 0 0 0 0 0 0 0 0 0 0 0 0 0 0 0 0 0 0 0 0 0 0 0 0 0 0 0 0
0 0 0 0 0 0 0 0 0 0 0 0 0 0 0 0 0 0 0 0 0 0 0 0 0 0 0 0 0 0 0 0 0 0 0 0 0 0 0 0 0 0 0
Wind_Speed
6 7 13 14 15 15 15 15 15 15 15 15 15 15 15 15 14 14 13 13 13 13 14 15 15 15 15 15 15 15 15 15 15 15 15 15 15 15 14 14 12 8 14
9 9 14 14 15 15 15 15 15 15 14 14 15 15 14 14 14 13 13 13 13 13 14 15 15 15 15 15 15 15 15 15 15 14 14 12 14 14 14 13 12 9 13
10 10 12 14 15 15 15 15 15 15 14 14 14 14 14 14 14 13 13 13 13 13 14 14 14 14 14 14 14 14 14 14 14 13 11 6 8 14 14 14 14 14 13
11 10 10 14 15 15 15 15 15 15 14 14 14 14 14 14 13 13 13 13 13 13 13 13 13 13 13 14 14 14 13 13 13 12 6 5 5 12 13 13 13 13 13
9 8 11 14 15 15 15 15 15 15 14 14 14 13 13 13 13 13 12 13 13 13 13 13 12 12 13 13 13 13 13 13 13 9 6 5 5 11 13 13 12 12 12
9 8 11 15 15 15 15 14 14 14 14 14 13 13 13 13 13 12 12 12 12 12 12 12 12 12 12 13 13 13 13 13 10 6 5 5 4 11 12 12 12 12 12
9 8 10 14 15 15 15 14 14 14 14 13 13 13 13 13 13 12 12 12 12 11 11 11 12 12 12 12 12 13 12 12 7 5 5 4 6 11 12 12 12 12 12
8 8 9 14 14 14 15 14 14 13 13 13 13 13 13 13 12 12 12 12 11 11 11 11 12 12 12 12 12 11 11 9 7 5 4 4 8 10 11 11 11 11 11
7 7 7 8 10 13 13 13 13 13 13 13 12 12 12 12 12 12 11 11 11 11 11 11 12 12 12 11 11 11 11 10 6 4 4 3 7 9 10 10 10 10 10
6 6 6 6 7 7 8 11 12 11 12 12 11 11 10 10 10 10 9 10 10 10 10 11 12 12 11 11 11 11 11 8 5 4 3 4 8 9 9 10 10 10 10
6 5 6 7 7 7 6 8 9 10 10 10 9 10 9 5 5 6 7 9 9 10 10 11 11 11 11 10 10 10 8 3 4 3 2 6 8 9 9 9 9 9 9
8 7 6 7 7 7 6 5 4 4 5 5 5 6 4 4 4 5 7 8 9 9 9 10 11 10 8 4 6 7 3 4 3 2 3 6 7 8 8 8 8 8 8
8 7 7 6 7 7 5 5 3 3 4 4 5 6 5 4 3 3 3 4 5 6 5 6 6 4 4 3 3 3 3 3 2 2 3 6 6 7 7 7 7 7 7
8 7 7 7 6 6 6 5 4 4 3 3 4 6 5 3 3 3 2 3 3 2 3 3 3 4 4 4 4 4 3 2 2 2 3 6 6 6 6 6 6 6 6
9 8 8 7 7 7 6 5 5 4 4 4 4 4 5 4 4 3 2 2 2 2 3 3 3 4 4 3 3 3 3 3 2 2 2 6 6 6 5 5 5 5 5
9 9 8 8 7 7 6 5 5 4 4 4 4 4 5 4 4 4 3 3 2 2 2 3 3 3 3 3 3 2 2 2 2 2 2 4 6 6 5 5 5 5 5
9 8 9 9 8 8 8 7 5 4 5 4 4 4 5 4 5 4 3 3 2 3 3 3 3 3 3 3 2 2 2 2 2 2 2 2 3 5 6 5 5 5 5
8 8 8 8 8 8 7 6 5 5 5 4 4 4 5 5 5 4 3 3 3 3 3 3 3 3 2 2 2 1 1 1 1 1 1 1 1 2 4 6 5 5 5
8 8 8 8 9 8 7 6 5 5 4 4 4 4 4 5 5 4 4 3 3 3 3 3 2 2 2 2 2 1 1 1 1 1 1 1 1 1 2 4 6 6 6
6 7 8 7 7 7 6 5 4 4 3 3 4 4 5 5 5 5 4 4 4 3 3 3 3 2 2 2 2 2 1 1 0 0 0 0 0 1 1 2 2 4 6
5 6 7 7 7 7 6 6 5 5 4 3 3 4 5 5 5 5 4 4 4 4 4 4 3 3 2 2 2 1 1 1 0 0 0 0 0 1 0 1 1 1 3
5 6 7 7 7 7 5 5 4 4 3 3 3 4 5 5 6 5 6 5 4 4 4 4 4 3 1 1 2 1 1 2 2 1 1 1 1 1 1 1 1 1 1
5 6 7 7 7 7 6 5 4 4 3 2 3 3 4 5 5 6 6 6 5 5 5 5 4 5 3 1 1 3 2 2 2 2 1 1 1 1 1 1 1 2 2
5 5 6 7 7 7 7 7 9 6 5 5 4 4 4 4 5 5 5 6 5 5 5 5 4 3 4 2 1 0 1 2 2 2 2 1 2 2 2 1 2 2 2
3 4 4 5 6 6 7 8 8 6 4 3 4 5 4 3 4 5 5 5 5 4 5 4 4 3 3 3 3 2 1 1 1 2 3 3 2 2 2 2 2 2 2
1 2 3 5 5 5 7 8 8 8 7 7 6 5 4 3 3 4 4 4 4 4 4 4 4 4 3 3 3 2 3 2 2 2 3 3 3 3 2 2 2 2 2
Wind_Direction
164 162 156 148 144 139 132 128 124 120 117 116 114 114 112 109 106 105 103 100 98 98 98 96 94 92 91 90 87 85 83 81 78 77 78 79 80 81 79 77 74 68 72
148 155 152 149 146 141 136 131 126 122 120 117 116 115 114 112 109 107 105 103 101 99 98 98 95 91 90 90 89 87 85 82 79 76 73 74 79 80 78 76 76 75 74
142 149 149 147 146 142 137 132 129 126 122 120 118 116 115 114 112 110 108 106 104 101 97 95 94 92 91 92 92 89 88 85 80 74 66 54 69 77 76 74 71 71 71
141 144 146 146 145 142 138 135 132 129 126 123 122 119 118 116 113 110 110 108 104 100 96 95 94 93 93 93 93 91 89 87 80 72 58 51 58 76 75 73 72 70 67
138 141 146 145 144 142 140 137 134 132 130 127 126 124 121 118 115 113 111 108 105 102 100 97 95 94 95 95 93 92 91 87 80 68 58 50 52 76 75 72 71 71 67
137 139 147 146 145 143 140 138 137 135 132 129 128 127 124 121 119 115 112 109 107 105 103 99 96 95 96 96 94 93 91 87 76 64 57 53 57 76 76 72 70 69 65
141 141 148 147 147 145 143 141 139 137 135 133 130 129 127 124 121 118 114 113 109 106 105 102 99 97 97 96 97 96 92 87 77 67 59 54 64 74 74 72 68 66 63
141 141 147 149 147 146 144 142 140 137 135 132 130 128 127 125 122 119 118 115 113 109 106 104 100 98 98 98 98 97 91 86 78 70 63 60 70 71 73 72 69 65 62
135 137 142 148 147 146 144 142 140 138 135 132 128 125 122 121 121 119 118 116 111 108 104 103 100 99 97 98 99 97 89 80 73 66 67 64 71 71 72 70 67 64 61
136 140 141 140 138 139 141 140 138 136 134 130 124 118 114 113 115 114 114 114 113 109 105 103 101 98 97 97 98 95 86 75 67 63 59 69 73 73 71 70 66 62 59
151 150 146 141 138 136 136 136 134 132 129 125 120 115 107 99 100 103 109 112 112 108 106 105 101 97 92 90 91 89 81 70 66 57 56 71 75 75 72 68 65 62 58
169 166 155 149 145 139 138 131 127 123 122 117 118 116 107 102 100 101 100 103 103 99 97 97 95 90 85 78 78 77 72 70 62 47 59 70 76 75 71 66 64 61 57
172 168 162 157 150 143 137 135 130 126 123 119 122 120 115 104 97 91 91 86 85 86 83 83 80 78 82 83 79 75 73 68 56 36 47 63 72 74 68 63 60 56 53
172 172 166 159 154 149 142 143 140 139 137 134 134 131 126 120 112 111 103 99 91 93 97 87 89 86 85 83 85 82 73 68 56 36 38 56 63 66 64 55 52 49 45
179 174 170 162 161 157 148 150 147 149 148 145 141 140 135 134 133 127 119 109 107 108 109 107 103 98 93 84 81 85 80 72 61 46 30 48 52 50 49 43 39 40 40
184 178 171 170 167 162 158 157 155 153 148 144 146 147 142 139 137 136 130 122 121 122 120 120 117 109 101 96 85 81 83 80 69 58 39 34 40 44 37 29 28 27 27
188 180 176 174 168 167 163 161 156 155 150 150 151 149 146 142 143 140 136 134 138 130 122 113 106 101 100 92 80 72 79 79 77 65 52 42 27 33 33 25 16 12 11
184 182 180 177 171 171 167 161 155 153 151 152 151 150 150 148 146 140 138 142 139 130 129 123 113 104 101 101 91 66 68 78 74 67 61 52 39 27 21 24 17 9 1
189 183 178 175 173 172 165 155 150 147 149 152 151 153 155 151 147 143 143 144 138 131 130 129 112 118 116 108 99 73 51 58 59 66 66 47 45 37 21 19 16 7 357
187 182 178 172 168 163 154 143 139 139 148 151 159 162 158 156 152 145 143 145 140 132 127 124 119 102 111 117 95 67 42 40 72 103 226 323 30 24 24 15 6 358 356
180 180 179 174 169 163 164 165 163 168 165 162 168 161 161 158 157 153 147 147 148 149 151 144 129 114 100 109 96 49 2 351 65 231 241 259 290 299 15 359 350 348 340
187 188 183 183 176 175 176 170 161 153 155 157 157 159 166 166 164 158 154 156 157 148 143 146 138 127 114 121 132 122 346 333 321 297 285 248 279 306 310 323 317 320 320
195 196 192 186 180 177 165 147 132 121 117 141 162 169 178 172 167 162 163 160 161 161 166 170 162 151 157 167 127 146 156 228 301 312 297 300 309 306 283 284 296 297 298
209 200 192 184 180 177 166 165 165 170 173 180 176 171 168 168 165 165 164 165 166 168 169 175 169 163 152 164 154 67 150 154 167 303 310 311 305 281 274 285 290 278 275
209 194 188 179 179 177 176 174 172 171 169 152 147 154 164 170 170 167 165 165 168 170 171 169 168 169 169 169 169 160 139 93 147 183 280 305 311 279 263 261 263 271 271
202 188 177 173 176 176 179 177 176 172 166 159 162 171 172 168 168 168 164 168 171 171 173 176 174 173 179 172 173 173 168 169 182 184 231 272 287 287 281 266 256 262 271